Weather History for Campo, CA

Change the Weather History Date:

Thursday, April 25, 2013

  Actual Average Record
Temperature  
Mean Temperature 59 °F 57 °F  
Max Temperature 70 °F 75 °F 90 °F (2000)
Min Temperature 48 °F 39 °F 23 °F (1961)
Degree Days  
Heating Degree Days 6 8  
Month to date heating degree days 269 261  
Since 1 July heating degree days 2785 2729  
Cooling Degree Days 0 0  
Month to date cooling degree days 0 0  
Year to date cooling degree days 0 0  
Growing Degree Days 6 (Base 50)    
Moisture  
Dew Point 43 °F    
Average Humidity 62    
Maximum Humidity 86    
Minimum Humidity 37    
Precipitation  
Precipitation 0.00 in 0.02 in 0.80 in (1951)
Month to date precipitation 0.01 0.85  
Year to date precipitation 4.45 9.75  
Since 1 July precipitation 8.92 15.33  
Snow  
Snow 0.00 in - - ()
Month to date snowfall 0.0  
Year to date snowfall 0.0  
Since 1 July snowfall 0.0  
Snow Depth 0.00 in    
Sea Level Pressure  
Sea Level Pressure 29.96 in    
Wind  
Wind Speed 10 mph (West)    
Max Wind Speed 18 mph    
Max Gust Speed 24 mph    
T = Trace of Precipitation, MM = Missing Value Source: NWS Daily Summary

Daily Weather History Graph

Daily Weather History Graph

Search for Another Location

Airport:

Trip Planner

Search our weather history database for the weather conditions in past years. The results will help you decide how hot, cold, wet, or windy it might be!

Date:

Astronomy

Apr. 25, 2013 Rise Set
Actual Time 6:04 AM PDT 7:23 PM PDT
Civil Twilight 5:38 AM PDT 7:49 PM PDT
Nautical Twilight 5:08 AM PDT 8:20 PM PDT
Astronomical Twilight 4:36 AM PDT 8:52 PM PDT
Moon 7:39 PM PDT (4/25) 5:50 AM PDT (4/25)
Length of Visible Light 14h 10m
Length of Day
13h 18m
Full, 100% of the Moon is Illuminated
Apr 25
Full
Apr 25
Full
May 2
Last Quarter
May 9
New
May 17
First Quarter

Hourly Weather History & Observations

Time (PDT) Temp. Windchill Dew Point Humidity Pressure Visibility Wind Dir Wind Speed Gust Speed Precip Events Conditions
12:52 AM 50.0 °F - 44.1 °F 80% 29.88 in - WSW 4.6 mph - N/A   Unknown
1:52 AM 50.0 °F - 43.0 °F 77% 29.88 in - West 5.8 mph - N/A   Unknown
2:52 AM 48.9 °F - 44.1 °F 83% 29.87 in - SW 10.4 mph - N/A   Unknown
3:52 AM 48.0 °F - 44.1 °F 86% 29.88 in - SW 10.4 mph - N/A   Unknown
4:52 AM 48.0 °F - 43.0 °F 83% 29.89 in - SW 11.5 mph - N/A   Unknown
5:52 AM 48.0 °F - 43.0 °F 83% 29.91 in - WSW 11.5 mph - N/A   Unknown
6:52 AM 48.9 °F - 43.0 °F 80% 29.93 in - SW 11.5 mph - N/A   Unknown
7:52 AM 48.9 °F - 44.1 °F 83% 29.95 in - SW 11.5 mph - N/A   Unknown
8:52 AM 53.1 °F - 39.9 °F 61% 29.97 in - West 15.0 mph - N/A   Unknown
9:52 AM 55.9 °F - 39.9 °F 55% 29.98 in - NW 11.5 mph - N/A   Unknown
10:52 AM 57.9 °F - 39.9 °F 51% 29.99 in - NW 10.4 mph 17.3 mph N/A   Unknown
11:52 AM 60.1 °F - 41.0 °F 49% 29.99 in - Variable 6.9 mph 17.3 mph N/A   Unknown
12:52 PM 62.1 °F - 42.1 °F 48% 29.98 in - WNW 9.2 mph 19.6 mph N/A   Unknown
1:52 PM 64.9 °F - 42.1 °F 43% 29.96 in - West 11.5 mph - N/A   Unknown
2:52 PM 66.0 °F - 41.0 °F 40% 29.94 in - WNW 9.2 mph - N/A   Unknown
3:52 PM 69.1 °F - 42.1 °F 38% 29.93 in - WNW 10.4 mph - N/A   Unknown
4:52 PM 66.9 °F - 44.1 °F 44% 29.93 in - WSW 13.8 mph 24.2 mph N/A   Unknown
5:52 PM 64.9 °F - 46.0 °F 50% 29.95 in - West 8.1 mph - N/A   Unknown
6:52 PM 60.1 °F - 46.0 °F 60% 29.97 in - WSW 9.2 mph - N/A   Unknown
7:52 PM 55.0 °F - 46.0 °F 72% 29.99 in - SW 6.9 mph - N/A   Unknown
8:52 PM 53.1 °F - 45.0 °F 74% 30.02 in - West 4.6 mph - N/A   Unknown
9:52 PM 46.9 °F - 42.1 °F 83% 30.04 in - Calm Calm - N/A   Unknown
10:52 PM 43.0 °F 40.3 °F 39.0 °F 86% 30.06 in - NE 4.6 mph - N/A   Unknown
11:52 PM 43.0 °F 41.3 °F 39.0 °F 86% 30.06 in - NE 3.5 mph - N/A   Unknown